This demonstration page uses our WeatherBlox Daily Observations layout. Learn more.

Left ArrowRight Arrow

41.55636, -103.73856

Hourly Observations for February 11, 2018

Temp ( °F °C ) Dew Point ( °F °C ) Humidity (%) Winds ( mph kmh ) Pressure ( in mb ) Visibility ( mi km ) Precip ( " mm )
12:53 am 00:53 Clear 11 -11.7 7 -13.9 84 84 NW 7 11 30.17 1022 10 16 N/A
1:53 am 01:53 Clear 11 -11.7 6 -14.4 81 81 NNW 6 9 30.17 1022 10 16 N/A
2:53 am 02:53 Clear 10 -12.2 6 -14.4 84 84 WNW 6 9 30.18 1022 10 16 N/A
3:53 am 03:53 Clear 10 -12.2 5 -15 80 80 N 6 9 30.14 1021 10 16 N/A
4:53 am 04:53 Clear 8 -13.3 4 -15.6 83 83 E 5 7 30.15 1021 10 16 N/A
5:53 am 05:53 Clear 8 -13.3 3 -16.1 80 80 NE 5 7 30.14 1021 10 16 N/A
6:53 am 06:53 Clear 7 -13.9 3 -16.1 84 84 ESE 7 11 30.14 1021 10 16 N/A
7:53 am 07:53 Sunny 13 -10.6 8 -13.3 81 81 ESE 9 15 30.14 1021 10 16 N/A
8:53 am 08:53 Sunny 19 -7.2 12 -11.1 74 74 E 6 9 30.12 1020 10 16 N/A
9:53 am 09:53 Sunny 28 -2.2 13 -10.6 53 53 SSE 5 7 30.08 1019 10 16 N/A
10:53 am 10:53 Sunny 34 1.1 15 -9.4 46 46 N N/A 30.06 1018 10 16 N/A
11:53 am 11:53 Sunny 39 3.9 18 -7.8 43 43 VRB 5 7 30.02 1017 10 16 N/A
12:53 pm 12:53 Sunny 42 5.6 19 -7.2 40 40 NW 15 24 30.00 1016 10 16 N/A
1:53 pm 13:53 Sunny 42 5.6 15 -9.4 33 33 NW 16 26 30.00 1016 10 16 N/A
2:53 pm 14:53 Sunny 40 4.4 14 -10 35 35 NNW 12 19 30.02 1017 10 16 N/A
3:53 pm 15:53 Sunny 41 5 16 -8.9 36 36 NNE 12 19 30.02 1017 10 16 N/A
4:53 pm 16:53 Sunny 37 2.8 18 -7.8 46 46 ENE 7 11 30.07 1018 10 16 N/A
5:53 pm 17:53 Clear 32 undefined 18 -7.8 56 56 NE 8 13 30.13 1020 10 16 N/A
6:53 pm 18:53 Clear 29 -1.7 17 -8.3 61 61 NNE 15 24 30.18 1022 10 16 N/A
7:53 pm 19:53 Clear 22 -5.6 15 -9.4 75 75 NE 22 35 30.20 1023 10 16 N/A
8:53 pm 20:53 Mostly Clear 20 -6.7 14 -10 78 78 ENE 13 20 30.25 1024 10 16 N/A
9:53 pm 21:53 Clear 17 -8.3 11 -11.7 77 77 ENE 13 20 30.25 1024 10 16 N/A
10:53 pm 22:53 Clear 14 -10 8 -13.3 77 77 E 15 24 30.26 1025 10 16 N/A
11:53 pm 23:53 Clear 12 -11.1 5 -15 73 73 ENE 15 24 30.29 1026 10 16 N/A

Powered by AerisWeather